This is the latest recevied weather packets stored in our database for station/object KC0AFB. If no packets are shown the sender has not sent any weather packets the latest 10 day(s).
| Time | Temp. | Humidity | Pressure | Rain* | Wind** | Luminosity | Snow |
|---|---|---|---|---|---|---|---|
| 1777937074 | 8.33° C | 46% | 1009.3 hPa | 0 mm | - | 281 W/m² | - |
| 1777936772 | 8.33° C | 47% | 1009.2 hPa | 0 mm | - | 354 W/m² | - |
| 1777936468 | 8.33° C | 47% | 1009.3 hPa | 0 mm | - | 111 W/m² | - |
| 1777936164 | 7.78° C | 47% | 1009 hPa | 0 mm | - | 367 W/m² | - |
| 1777935861 | 7.78° C | 48% | 1009.2 hPa | 0 mm | - | 138 W/m² | - |
| 1777935560 | 7.78° C | 46% | 1008.8 hPa | 0 mm | - | 128 W/m² | - |
| 1777935256 | 8.33° C | 46% | 1009.3 hPa | 0 mm | - | 131 W/m² | - |
| 1777934954 | 8.33° C | 48% | 1008.7 hPa | 0 mm | - | 143 W/m² | - |
| 1777934650 | 7.78° C | 46% | 1009.2 hPa | 0 mm | - | 147 W/m² | - |
| 1777934348 | 9.44° C | 44% | 1008.6 hPa | 0 mm | - | 357 W/m² | - |
| 1777934043 | 8.33° C | 44% | 1008.6 hPa | 0 mm | - | 425 W/m² | - |
| 1777933739 | 8.89° C | 45% | 1008.7 hPa | 0 mm | - | 108 W/m² | - |
| 1777933436 | 8.89° C | 45% | 1008.5 hPa | 0 mm | - | 488 W/m² | - |
| 1777933135 | 8.33° C | 46% | 1008.8 hPa | 0 mm | - | 478 W/m² | - |
| 1777932831 | 8.33° C | 47% | 1008.8 hPa | 0 mm | - | 490 W/m² | - |
| 1777932528 | 8.33° C | 45% | 1008.4 hPa | 0 mm | - | 140 W/m² | - |
| 1777932224 | 8.89° C | 47% | 1008.5 hPa | 0 mm | - | 189 W/m² | - |
| 1777931922 | 8.89° C | 47% | 1008.5 hPa | 0 mm | - | 216 W/m² | - |
| 1777931618 | 8.89° C | 48% | 1008.6 hPa | 0 mm | - | 248 W/m² | - |
| 1777931314 | 8.89° C | 49% | 1008.6 hPa | 0 mm | - | 236 W/m² | - |
| 1777931011 | 9.44° C | 49% | 1008.5 hPa | 0 mm | - | 225 W/m² | - |
| 1777930708 | 8.33° C | 54% | 1008.6 hPa | 0 mm | - | 553 W/m² | - |
| 1777930404 | 9.44° C | 50% | 1008.4 hPa | 0 mm | - | 394 W/m² | - |
| 1777930102 | 9.44° C | 47% | 1008.5 hPa | 0 mm | - | 298 W/m² | - |
| 1777929797 | 8.89° C | 50% | 1008.3 hPa | 0 mm | - | 342 W/m² | - |
* Rain latest hour (hover to see other rain measurements)
** Current wind speed in m/s (hover to see current wind gust speed)